Wind_Speed
21 21 21 21 21 21 22 22 22 21 20 20 20 20 19 18 19 19 19 19 20 19 19 18 18 19 20 20 20 20 21 22 22 22 22 22 22 23 23 22 23 23 23 24
23 23 23 23 22 22 22 23 23 23 21 21 22 22 21 21 21 21 20 20 20 20 19 19 19 19 20 20 21 21 21 21 22 22 22 23 23 23 23 24 24 24 24 24
25 24 25 24 22 22 23 23 23 23 22 22 23 22 22 23 23 22 22 21 21 21 21 21 21 21 21 21 22 22 22 22 23 23 24 23 23 24 24 24 24 25 25 25
27 26 27 24 23 23 23 23 23 23 23 23 23 23 23 24 24 23 23 23 22 22 22 22 22 22 22 22 23 23 23 24 24 24 24 24 24 24 25 26 26 27 27 27
27 28 28 25 24 24 24 24 24 24 23 24 24 25 25 24 25 24 24 25 24 23 23 24 24 23 24 24 24 25 25 25 25 24 24 25 25 26 26 27 27 28 28 28
26 27 27 24 24 25 25 24 24 25 25 25 25 25 25 25 25 25 26 26 26 25 25 25 25 25 25 25 26 26 26 26 25 24 25 25 26 27 27 27 28 28 28 29
26 26 25 24 24 24 24 24 24 25 25 25 26 26 26 26 26 26 26 27 27 27 26 26 26 26 26 27 26 26 27 26 26 26 26 27 27 28 28 29 29 29 29 29
26 26 24 23 24 24 24 24 24 24 25 26 26 25 26 26 26 26 27 27 28 28 27 27 27 27 27 27 26 26 26 26 27 28 27 28 29 29 30 30 30 31 31 30
26 26 25 24 25 25 24 25 24 25 26 27 27 26 26 26 25 26 27 28 28 28 28 28 28 27 27 26 27 27 27 27 28 29 29 29 30 31 31 32 32 32 32 31
27 26 26 26 26 26 27 27 26 26 27 28 28 27 26 26 26 26 27 28 28 28 28 28 28 28 27 27 27 27 27 27 28 30 30 31 31 32 32 32 33 32 32 32
27 26 26 27 27 27 28 28 28 28 28 28 28 28 28 27 27 28 28 29 29 28 28 28 29 29 29 29 28 29 29 29 30 31 31 32 32 33 33 33 33 32 32 32
27 27 28 27 27 28 28 29 29 29 29 28 28 29 29 29 28 29 30 30 30 29 29 29 29 30 30 30 30 30 31 32 32 32 32 32 33 32 32 33 33 34 33 33
28 28 28 28 28 27 28 29 29 29 30 29 28 29 29 30 30 30 30 30 30 30 30 30 30 30 31 31 32 32 32 33 33 33 33 33 33 33 33 33 34 35 35 34
28 29 28 28 28 28 27 27 28 28 29 29 29 29 29 30 30 31 30 30 30 30 31 31 31 31 32 33 33 33 33 33 34 34 33 33 33 33 34 34 34 35 35 35
29 29 28 28 27 27 27 27 27 27 28 28 29 29 29 29 30 30 31 31 31 31 32 32 32 33 34 34 34 34 34 34 34 34 33 33 33 33 33 34 35 35 35 35
29 29 28 28 28 28 28 28 28 28 27 27 28 29 29 30 30 31 31 31 32 32 32 33 33 34 35 36 36 35 35 34 34 33 33 33 33 33 34 34 35 35 35 35
28 29 28 28 28 28 28 28 28 28 28 28 28 29 30 30 31 31 32 32 32 33 33 34 34 35 35 35 36 35 35 34 34 33 33 33 33 33 33 33 34 35 35 35
28 28 28 28 28 28 28 29 29 29 29 29 29 30 30 30 31 32 32 32 33 33 34 35 35 36 36 36 36 35 35 34 34 33 33 33 32 32 32 33 33 34 34 33
27 27 28 28 28 28 28 28 29 29 30 30 30 30 30 30 31 31 31 32 33 33 34 35 36 36 36 36 36 36 35 34 34 33 32 32 32 32 32 33 33 33 33 32
27 28 28 28 28 28 28 28 29 29 29 30 30 31 31 31 31 31 32 32 33 34 35 35 36 36 37 36 36 35 35 34 34 34 33 33 33 33 33 34 34 34 34 33
27 28 28 29 29 29 29 29 28 29 29 30 30 30 31 31 31 32 32 33 33 34 35 36 36 36 36 36 36 35 34 34 34 33 33 33 34 34 34 34 35 35 34 34
27 28 28 29 29 29 29 29 29 30 30 30 31 31 31 31 32 32 33 33 34 35 35 35 35 35 35 35 35 34 34 34 34 33 33 34 34 34 35 35 35 35 35 35
27 28 28 28 29 29 29 30 30 30 31 31 31 31 32 32 32 33 33 34 35 35 35 34 34 34 34 34 34 34 34 34 33 33 34 34 34 34 35 34 34 34 34 34
28 27 28 28 29 29 29 30 30 30 31 31 31 32 32 33 33 34 34 35 34 34 34 34 34 33 33 33 33 33 33 33 33 33 33 33 33 33 33 34 34 33 33 33
29 29 29 29 29 30 30 31 31 31 31 31 31 32 33 33 33 33 34 34 34 34 34 33 33 33 32 32 32 33 33 33 32 32 32 32 32 32 32 31 32 32 32 32
28 28 28 29 30 31 31 31 31 31 31 31 31 31 32 32 33 33 34 34 34 34 33 33 32 32 32 32 32 32 32 32 32 31 31 30 30 30 30 30 30 31 31 32
29 29 29 29 29 30 31 31 31 31 31 31 31 31 32 33 33 33 33 34 34 34 33 33 33 32 32 32 32 32 31 31 31 31 30 30 30 30 30 31 31 30 30 30
Wind_Direction
263 262 261 262 262 263 263 265 267 267 270 271 272 270 267 268 267 267 268 270 270 269 271 272 274 275 276 277 278 280 280 280 280 281 282 281 281 281 281 281 282 283 283 283
262 261 262 262 264 264 263 262 265 267 269 272 271 270 269 269 268 267 268 269 271 273 273 273 275 275 276 277 279 281 282 282 282 281 281 281 280 281 282 283 283 284 284 283
264 263 263 263 264 264 264 263 265 267 267 269 270 268 268 268 268 268 268 268 269 272 273 273 274 276 278 278 279 281 282 283 282 282 282 282 282 281 282 284 284 285 285 284
265 264 263 266 263 262 263 263 265 266 265 267 270 269 269 269 269 269 269 269 270 272 273 273 274 276 278 278 279 281 283 283 283 284 283 283 283 282 283 284 284 284 285 285
267 266 266 265 264 265 266 265 266 267 267 268 269 270 270 269 269 270 270 269 270 271 272 274 275 276 278 279 280 281 282 283 284 283 282 282 282 282 283 284 284 284 284 285
267 267 266 267 267 267 267 266 265 265 266 267 269 270 270 268 268 269 269 270 271 271 272 275 276 277 277 279 280 280 281 281 282 283 282 283 283 283 284 284 285 285 284 284
266 268 268 269 269 267 266 268 266 264 266 267 268 269 269 269 269 269 270 271 272 272 272 274 276 278 279 280 281 281 281 281 279 281 282 282 282 283 284 284 284 284 284 284
266 267 271 271 270 268 268 269 268 266 266 268 270 270 270 270 271 271 272 273 273 274 273 275 277 279 280 281 282 282 282 282 281 281 281 281 282 283 283 283 284 284 283 282
268 269 270 270 269 269 269 269 268 268 267 267 269 271 269 269 271 272 273 274 275 276 276 277 277 279 280 281 282 283 283 284 284 282 283 282 282 282 282 283 283 284 284 282
266 267 268 266 266 267 268 269 269 268 268 268 269 269 268 267 268 271 274 275 276 278 278 278 278 278 280 281 282 283 284 284 285 284 283 284 284 283 283 283 282 282 283 283
266 267 267 266 266 267 268 268 269 268 268 270 270 270 269 268 267 269 273 276 277 278 279 280 280 279 280 281 281 282 283 285 286 285 285 285 285 284 283 283 282 282 282 283
268 268 267 268 268 268 268 268 268 268 268 270 270 270 270 269 268 270 272 274 277 278 279 279 280 280 281 282 280 281 283 284 286 287 287 286 285 284 284 283 284 284 283 284
268 268 269 270 269 269 269 269 268 269 269 270 270 271 271 271 270 269 270 273 275 276 278 279 280 280 282 283 282 282 283 283 285 286 286 286 285 284 284 283 284 286 285 284
267 270 271 271 271 270 270 269 269 270 270 270 270 271 271 272 272 271 271 272 274 276 277 278 280 280 281 283 283 283 282 282 284 285 286 285 286 286 286 285 285 286 286 285
268 270 270 270 270 270 270 271 271 272 273 272 272 273 272 271 271 272 272 273 274 276 278 279 280 281 281 282 283 283 282 283 284 284 284 284 284 285 286 286 286 287 287 286
267 267 268 268 269 269 270 271 272 273 274 275 275 276 275 274 273 273 274 274 275 276 277 279 280 282 282 282 283 284 283 283 283 283 283 283 283 286 287 287 287 288 287 287
265 266 266 267 267 268 270 272 272 273 273 274 275 277 277 276 275 275 274 274 275 276 278 280 281 282 282 283 284 284 283 283 282 282 283 284 285 286 288 288 288 287 288 288
266 265 265 266 267 268 269 271 272 272 273 274 275 277 279 278 277 276 276 275 277 278 279 280 281 282 282 282 283 283 282 283 283 282 282 283 284 285 287 289 290 289 289 289
267 266 265 267 268 270 271 272 272 273 273 274 275 277 278 279 278 278 278 278 279 280 280 280 282 282 283 283 283 283 283 283 283 282 283 283 283 284 286 288 289 290 289 289
268 267 267 267 268 271 272 274 274 274 274 274 275 276 277 278 279 280 281 282 282 281 281 282 283 283 283 283 282 283 283 283 284 284 284 284 284 285 286 287 287 288 289 289
268 268 267 268 270 272 273 274 274 274 275 275 275 276 277 278 279 280 281 283 284 283 284 284 284 283 282 281 281 282 283 284 283 283 283 283 284 285 286 287 287 287 288 289
267 267 268 269 271 272 273 274 274 275 275 275 275 276 277 277 278 280 282 283 285 285 285 285 285 284 282 280 280 281 282 283 283 282 282 283 283 284 285 285 286 286 287 288
269 269 269 270 271 272 273 274 275 275 276 276 276 276 277 278 279 280 282 283 284 285 285 285 284 283 282 281 280 281 281 282 282 283 283 284 284 284 284 284 285 286 286 287
270 270 270 270 272 273 274 275 276 276 277 277 277 277 278 279 280 281 282 284 285 286 286 286 284 283 282 281 281 280 281 281 281 282 283 284 284 285 286 285 285 284 285 286
271 272 272 272 273 274 275 276 276 277 278 279 279 280 280 280 281 282 282 283 285 286 286 285 284 284 283 282 281 280 280 280 280 281 282 283 284 285 286 286 285 285 285 286
270 271 272 273 274 275 276 277 278 278 279 280 281 281 281 281 282 283 283 284 285 286 286 285 285 285 284 283 282 282 282 281 280 280 281 281 283 284 286 287 287 286 286 286
269 270 272 274 275 276 277 277 278 279 280 281 282 282 283 282 283 284 284 285 286 286 285 285 284 284 284 282 282 282 282 281 281 281 281 280 281 283 284 286 287 286 286 286
Height
5779 5780 5779 5780 5780 5780 5780 5781 5781 5782 5782 5783 5782 5782 5782 5783 5783 5783 5783 5783 5783 5783 5783 5782 5782 5782 5781 5781 5780 5779 5779 5778 5777 5776 5776 5775 5774 5773 5772 5771 5769 5768 5767 5766
5773 5773 5773 5774 5775 5774 5774 5775 5775 5775 5777 5777 5776 5776 5776 5776 5777 5777 5777 5778 5778 5777 5777 5777 5776 5776 5775 5775 5774 5773 5773 5772 5771 5770 5769 5768 5767 5766 5765 5764 5763 5761 5760 5759
5766 5767 5766 5767 5769 5768 5768 5769 5769 5769 5771 5770 5770 5770 5770 5770 5771 5771 5771 5772 5772 5771 5771 5771 5770 5770 5769 5769 5768 5767 5766 5765 5764 5763 5762 5761 5760 5759 5758 5757 5756 5754 5753 5751
5758 5759 5759 5764 5762 5762 5762 5763 5763 5762 5763 5763 5763 5763 5763 5764 5764 5764 5765 5765 5765 5765 5765 5764 5764 5763 5762 5762 5761 5760 5759 5758 5757 5756 5755 5754 5752 5752 5751 5749 5748 5747 5745 5744
5751 5751 5752 5755 5755 5754 5755 5756 5756 5755 5756 5756 5756 5756 5757 5757 5757 5757 5758 5758 5758 5758 5758 5758 5757 5756 5755 5755 5754 5753 5752 5751 5750 5748 5747 5746 5745 5744 5743 5741 5740 5739 5737 5735
5744 5743 5744 5749 5748 5747 5748 5748 5748 5748 5749 5749 5749 5750 5751 5750 5750 5750 5750 5751 5751 5751 5751 5750 5750 5749 5748 5747 5746 5745 5744 5743 5741 5740 5739 5739 5737 5736 5734 5733 5731 5730 5728 5727
5737 5736 5738 5741 5740 5741 5742 5742 5741 5741 5741 5741 5742 5743 5743 5742 5742 5743 5743 5743 5743 5743 5743 5743 5742 5741 5740 5739 5738 5736 5735 5734 5733 5732 5731 5730 5729 5728 5726 5725 5723 5721 5719 5718
5730 5730 5734 5734 5733 5734 5734 5733 5733 5733 5734 5734 5734 5734 5735 5735 5735 5735 5735 5735 5735 5735 5735 5734 5734 5733 5732 5731 5730 5729 5727 5726 5724 5724 5723 5722 5720 5719 5717 5715 5714 5712 5710 5708
5723 5726 5726 5726 5725 5725 5725 5726 5726 5726 5726 5726 5727 5727 5728 5728 5728 5728 5728 5728 5727 5727 5727 5726 5726 5725 5724 5723 5722 5720 5719 5718 5716 5715 5714 5712 5711 5709 5708 5706 5704 5702 5700 5698
5715 5717 5717 5717 5717 5718 5718 5718 5718 5718 5718 5719 5719 5720 5720 5720 5720 5720 5720 5719 5719 5719 5719 5718 5717 5716 5715 5714 5713 5712 5711 5709 5708 5706 5705 5703 5701 5699 5698 5696 5694 5692 5690 5688
5707 5709 5709 5709 5709 5710 5710 5709 5709 5710 5710 5710 5711 5711 5712 5712 5712 5712 5711 5711 5710 5710 5710 5709 5708 5708 5707 5706 5705 5703 5702 5700 5699 5697 5695 5693 5691 5689 5687 5686 5683 5682 5680 5678
5700 5701 5700 5701 5701 5701 5701 5701 5701 5702 5702 5702 5702 5703 5703 5703 5703 5703 5703 5702 5702 5701 5701 5700 5699 5699 5698 5696 5695 5694 5692 5691 5689 5687 5685 5683 5681 5679 5677 5675 5673 5671 5669 5667
5691 5692 5692 5693 5693 5692 5692 5692 5692 5693 5693 5694 5694 5693 5694 5694 5694 5694 5694 5694 5693 5692 5692 5691 5690 5689 5688 5687 5685 5684 5682 5681 5679 5677 5675 5673 5671 5669 5667 5665 5663 5661 5658 5656
5683 5683 5684 5684 5684 5684 5683 5683 5683 5684 5684 5685 5685 5685 5685 5685 5685 5685 5685 5684 5684 5683 5682 5682 5681 5680 5679 5677 5675 5673 5672 5670 5668 5666 5664 5662 5660 5658 5656 5654 5652 5650 5648 5645
5674 5675 5675 5675 5675 5675 5675 5675 5675 5675 5676 5676 5676 5676 5675 5675 5676 5676 5675 5675 5674 5673 5672 5672 5671 5670 5668 5667 5665 5663 5661 5659 5658 5656 5654 5652 5650 5648 5646 5644 5641 5639 5637 5634
5666 5666 5666 5666 5667 5667 5667 5667 5667 5667 5667 5667 5667 5666 5666 5666 5666 5666 5665 5665 5664 5664 5663 5662 5661 5660 5658 5656 5654 5653 5651 5649 5647 5645 5643 5641 5640 5638 5635 5633 5631 5628 5626 5624
5657 5657 5657 5658 5658 5658 5658 5659 5659 5659 5659 5658 5658 5657 5657 5656 5656 5656 5655 5654 5654 5653 5652 5651 5650 5649 5647 5645 5643 5642 5640 5638 5636 5635 5633 5631 5629 5627 5625 5623 5620 5618 5616 5613
5648 5648 5648 5649 5649 5649 5650 5650 5650 5650 5650 5649 5649 5648 5647 5647 5646 5646 5645 5644 5644 5643 5642 5641 5639 5638 5636 5634 5633 5631 5629 5628 5626 5624 5623 5621 5619 5617 5615 5613 5610 5608 5605 5603
5639 5639 5640 5640 5641 5641 5641 5641 5641 5641 5640 5640 5639 5639 5638 5637 5636 5636 5635 5634 5633 5632 5631 5630 5628 5627 5625 5623 5621 5620 5618 5617 5616 5614 5612 5611 5609 5607 5605 5603 5600 5598 5596 5594
5630 5631 5631 5631 5632 5632 5632 5632 5632 5631 5631 5630 5630 5629 5629 5628 5627 5626 5625 5624 5623 5621 5620 5619 5617 5616 5614 5612 5611 5609 5608 5606 5605 5603 5602 5600 5598 5597 5595 5592 5590 5588 5586 5584
5622 5622 5622 5623 5623 5623 5623 5623 5622 5622 5621 5621 5620 5620 5619 5618 5617 5616 5615 5614 5613 5611 5609 5608 5606 5604 5603 5601 5600 5598 5597 5596 5594 5592 5591 5589 5588 5586 5584 5582 5580 5578 5576 5574
5613 5613 5613 5614 5614 5614 5614 5613 5613 5612 5612 5611 5610 5610 5609 5608 5607 5606 5605 5604 5603 5601 5599 5597 5595 5593 5592 5590 5589 5588 5586 5585 5583 5582 5580 5579 5577 5575 5573 5572 5570 5568 5566 5564
5604 5604 5605 5605 5605 5605 5604 5604 5603 5603 5602 5602 5601 5600 5599 5599 5597 5596 5595 5594 5592 5590 5588 5586 5584 5582 5581 5579 5578 5577 5575 5574 5572 5571 5569 5568 5566 5564 5562 5560 5559 5557 5555 5553
5595 5595 5595 5596 5596 5595 5595 5595 5594 5593 5593 5592 5591 5590 5589 5588 5587 5586 5584 5583 5581 5579 5577 5575 5573 5572 5570 5568 5567 5566 5564 5563 5561 5560 5558 5557 5555 5553 5552 5550 5548 5546 5545 5543
5586 5586 5586 5587 5586 5586 5586 5585 5584 5584 5583 5582 5581 5580 5578 5577 5576 5575 5574 5572 5570 5568 5566 5564 5562 5561 5559 5558 5556 5555 5553 5552 5550 5549 5548 5546 5545 5543 5541 5539 5537 5536 5534 5533
5577 5577 5577 5577 5577 5576 5576 5575 5575 5574 5573 5572 5571 5569 5568 5567 5565 5564 5562 5561 5559 5557 5555 5553 5552 5550 5549 5547 5546 5544 5543 5541 5540 5538 5537 5536 5534 5533 5531 5530 5528 5526 5524 5523
5568 5568 5568 5568 5567 5567 5566 5565 5565 5564 5563 5562 5561 5560 5558 5556 5555 5553 5551 5550 5548 5546 5544 5542 5541 5539 5538 5536 5535 5533 5532 5531 5529 5528 5527 5526 5525 5523 5522 5520 5518 5516 5515 5513